Location: Newark
(33.6439°N, 114.9881°W)
Time: 10:50:38
(UTC+00:00)

Tiros 1 - Pass Details

Date: 22 July 2019
Orbit: 630 x 664 km, 48.4° (Epoch: 19 August)

Event Time Altitude Azimuth Distance (km) Brightness Sun altitude
Rises 22:53:58 0° 311° (NW) 2,996 11.0 46.5°
Reaches altitude 10° 22:57:19 10° 335° (NNW) 2,082 10.1 45.8°
Maximum altitude 23:00:04 15° 10° (N) 1,769 9.4 45.2°
Drops below altitude 10° 23:02:48 10° 45° (NE) 2,075 9.5 44.7°
Sets 23:06:08 0° 69° (ENE) 2,981 10.1 44.0°
